WJA33 LPPR-CYHZ

Flight info

Callsign WJA33
Flight time 5h 49m
Altitude 34000
Route TOVBA DCT RETEN/M078F340 DCT 45N020W 46N030W 47N040W 47N050W DCT OMSAT/N0460F340 DCT SUTKO DCT AGMIR LIRLA5
Aircraft B38M/M-SDE1FGHILORVWXY/HB1

Departure

Time 2026-05-04 19:31
Airport Francisco de Sá Carneiro Airport (LPPR)

Arrival

Time 2026-05-05 01:21
Airport Halifax / Stanfield International Airport (CYHZ)
Time Latitude Longitude Altitude Speed Heading
2026-05-04 18:59 41.23593 -8.67225 248 ft 0 kts 89°
2026-05-04 19:20 41.23593 -8.67251 247 ft 4 kts 97°
2026-05-04 19:20 41.23599 -8.67284 246 ft 4 kts 112°
2026-05-04 19:21 41.23613 -8.67314 245 ft 4 kts 135°
2026-05-04 19:21 41.23634 -8.67332 244 ft 4 kts 165°
2026-05-04 19:21 41.23640 -8.67334 244 ft 0 kts 168°
2026-05-04 19:25 41.23617 -8.67330 244 ft 7 kts 178°
2026-05-04 19:25 41.23556 -8.67362 243 ft 11 kts 211°
2026-05-04 19:25 41.23482 -8.67384 242 ft 12 kts 174°
2026-05-04 19:26 41.23399 -8.67366 241 ft 10 kts 170°
2026-05-04 19:26 41.23337 -8.67409 239 ft 12 kts 244°
2026-05-04 19:26 41.23327 -8.67475 238 ft 7 kts 259°
2026-05-04 19:26 41.23315 -8.67551 238 ft 10 kts 258°
2026-05-04 19:27 41.23309 -8.67595 238 ft 2 kts 258°
2026-05-04 19:27 41.23308 -8.67602 238 ft 0 kts 258°
2026-05-04 19:28 41.23308 -8.67603 238 ft 0 kts 258°
2026-05-04 19:29 41.23305 -8.67617 238 ft 6 kts 258°
2026-05-04 19:29 41.23302 -8.67700 240 ft 10 kts 288°
2026-05-04 19:29 41.23362 -8.67746 240 ft 0 kts 349°
2026-05-04 19:30 41.23363 -8.67747 240 ft 1 kts 349°
2026-05-04 19:30 41.23482 -8.67778 238 ft 49 kts 349°
2026-05-04 19:30 41.24060 -8.67929 219 ft 118 kts 349°
2026-05-04 19:31 41.25052 -8.68186 260 ft 165 kts 348°
2026-05-04 19:31 41.26227 -8.68472 793 ft 181 kts 346°
2026-05-04 19:31 41.27411 -8.69001 1637 ft 176 kts 334°
2026-05-04 19:31 41.28504 -8.69702 2394 ft 177 kts 331°
2026-05-04 19:32 41.29737 -8.70268 2618 ft 208 kts 352°
2026-05-04 19:32 41.31278 -8.70439 2923 ft 233 kts 352°
2026-05-04 19:32 41.32949 -8.70701 3411 ft 250 kts 349°
2026-05-04 19:32 41.34674 -8.71028 4277 ft 249 kts 348°
2026-05-04 19:33 41.36409 -8.71392 5062 ft 254 kts 348°
2026-05-04 19:33 41.38169 -8.71780 5828 ft 258 kts 348°
2026-05-04 19:33 41.39950 -8.72185 6631 ft 260 kts 347°
2026-05-04 19:33 41.41631 -8.73020 7388 ft 257 kts 327°
2026-05-04 19:34 41.43034 -8.74510 8072 ft 262 kts 310°
2026-05-04 19:34 41.43984 -8.76532 8858 ft 261 kts 296°
2026-05-04 19:34 41.44827 -8.78753 9500 ft 269 kts 297°
2026-05-04 19:34 41.45677 -8.80944 10229 ft 271 kts 297°
2026-05-04 19:35 41.46568 -8.83217 10581 ft 287 kts 297°
2026-05-04 19:35 41.47532 -8.85644 10786 ft 306 kts 298°
2026-05-04 19:35 41.48558 -8.88220 11108 ft 321 kts 298°
2026-05-04 19:35 41.49615 -8.90876 11699 ft 324 kts 298°
2026-05-04 19:36 41.50668 -8.93541 12397 ft 327 kts 297°
2026-05-04 19:36 41.51733 -8.96242 13072 ft 329 kts 297°
2026-05-04 19:36 41.52800 -8.98953 13764 ft 331 kts 297°
2026-05-04 19:36 41.53876 -9.01690 14377 ft 334 kts 297°
2026-05-04 19:37 41.54958 -9.04445 14993 ft 336 kts 297°
2026-05-04 19:37 41.56045 -9.07211 15604 ft 338 kts 297°
2026-05-04 19:37 41.57137 -9.09996 16218 ft 339 kts 297°
2026-05-04 19:37 41.58230 -9.12784 16849 ft 340 kts 297°
2026-05-04 19:38 41.59332 -9.15600 17427 ft 343 kts 297°
2026-05-04 19:38 41.60439 -9.18428 18001 ft 345 kts 297°
2026-05-04 19:38 41.61553 -9.21281 18558 ft 347 kts 297°
2026-05-04 19:38 41.62672 -9.24149 19018 ft 350 kts 297°
2026-05-04 19:39 41.63804 -9.27050 19486 ft 352 kts 297°
2026-05-04 19:39 41.64937 -9.29959 20003 ft 353 kts 297°
2026-05-04 19:39 41.66074 -9.32880 20484 ft 355 kts 297°
2026-05-04 19:39 41.67215 -9.35815 20977 ft 356 kts 297°
2026-05-04 19:40 41.68362 -9.38767 21469 ft 357 kts 297°
2026-05-04 19:40 41.69490 -9.41674 21942 ft 359 kts 297°
2026-05-04 19:40 41.70641 -9.44644 22411 ft 360 kts 297°
2026-05-04 19:40 41.71796 -9.47625 22863 ft 361 kts 297°
2026-05-04 19:41 41.72951 -9.50612 23368 ft 362 kts 297°
2026-05-04 19:41 41.74112 -9.53617 23769 ft 364 kts 296°
2026-05-04 19:41 41.75278 -9.56637 24131 ft 365 kts 296°
2026-05-04 19:41 41.76448 -9.59673 24462 ft 368 kts 296°
2026-05-04 19:42 41.77620 -9.62715 24790 ft 370 kts 296°
2026-05-04 19:42 41.78805 -9.65797 25119 ft 372 kts 296°
2026-05-04 19:42 41.79995 -9.68897 25414 ft 376 kts 297°
2026-05-04 19:42 41.81200 -9.72033 25589 ft 381 kts 297°
2026-05-04 19:43 41.82409 -9.75188 25956 ft 382 kts 297°
2026-05-04 19:43 41.83629 -9.78373 26234 ft 385 kts 297°
2026-05-04 19:43 41.84852 -9.81570 26558 ft 386 kts 297°
2026-05-04 19:43 41.86067 -9.84747 26834 ft 388 kts 297°
2026-05-04 19:44 41.87299 -9.87976 27216 ft 388 kts 296°
2026-05-04 19:44 41.88532 -9.91208 27472 ft 391 kts 296°
2026-05-04 19:44 41.89772 -9.94465 27762 ft 393 kts 296°
2026-05-04 19:44 41.91018 -9.97740 28044 ft 395 kts 296°
2026-05-04 19:45 41.92265 -10.01022 28322 ft 397 kts 296°
2026-05-04 19:45 41.93519 -10.04324 28587 ft 398 kts 296°
2026-05-04 19:45 41.94780 -10.07652 28850 ft 400 kts 296°
2026-05-04 19:45 41.96046 -10.10996 29133 ft 402 kts 296°
2026-05-04 19:46 41.97319 -10.14362 29297 ft 407 kts 297°
2026-05-04 19:46 41.98608 -10.17773 29466 ft 410 kts 297°
2026-05-04 19:46 41.99902 -10.21203 29705 ft 412 kts 297°
2026-05-04 19:46 42.01197 -10.24639 30026 ft 412 kts 297°
2026-05-04 19:47 42.02493 -10.28083 30246 ft 414 kts 297°
2026-05-04 19:47 42.03795 -10.31545 30467 ft 415 kts 297°
2026-05-04 19:47 42.05077 -10.34963 30743 ft 414 kts 297°
2026-05-04 19:47 42.06373 -10.38420 31006 ft 414 kts 297°
2026-05-04 19:48 42.07666 -10.41876 31264 ft 414 kts 297°
2026-05-04 19:48 42.08962 -10.45341 31509 ft 414 kts 297°
2026-05-04 19:48 42.10256 -10.48806 31773 ft 413 kts 296°
2026-05-04 19:48 42.11543 -10.52254 32026 ft 413 kts 296°
2026-05-04 19:49 42.12825 -10.55697 32297 ft 413 kts 297°
2026-05-04 19:49 42.14118 -10.59171 32447 ft 415 kts 297°
2026-05-04 19:49 42.15405 -10.62633 32678 ft 414 kts 297°
2026-05-04 19:49 42.16694 -10.66105 32910 ft 414 kts 297°
2026-05-04 19:50 42.17986 -10.69588 33152 ft 414 kts 297°
2026-05-04 19:50 42.19272 -10.73061 33393 ft 414 kts 297°
2026-05-04 19:50 42.20123 -10.75362 33545 ft 413 kts 296°
2026-05-04 19:50 42.21408 -10.78836 33770 ft 413 kts 296°
2026-05-04 19:51 42.22687 -10.82299 33997 ft 413 kts 296°
2026-05-04 19:51 42.23967 -10.85772 34124 ft 413 kts 296°
2026-05-04 19:51 42.25663 -10.90374 34125 ft 412 kts 296°
2026-05-04 19:52 42.27792 -10.96165 34107 ft 411 kts 296°
2026-05-04 19:52 42.30318 -11.03051 34123 ft 408 kts 296°
2026-05-04 19:53 42.32824 -11.09899 34126 ft 409 kts 296°
2026-05-04 19:53 42.35338 -11.16785 34126 ft 409 kts 296°
2026-05-04 19:54 42.37843 -11.23665 34130 ft 408 kts 296°
2026-05-04 19:54 42.40352 -11.30569 34126 ft 408 kts 296°
2026-05-04 19:55 42.42847 -11.37453 34133 ft 405 kts 296°
2026-05-04 19:55 42.45307 -11.44260 34143 ft 406 kts 296°
2026-05-04 19:56 42.47806 -11.51189 34148 ft 411 kts 296°
2026-05-04 19:56 42.50304 -11.58130 34146 ft 410 kts 296°
2026-05-04 19:57 42.52800 -11.65085 34129 ft 410 kts 296°
2026-05-04 19:57 42.55291 -11.72045 34129 ft 410 kts 296°
2026-05-04 19:58 42.57765 -11.78972 34134 ft 410 kts 296°
2026-05-04 19:58 42.60243 -11.85931 34136 ft 410 kts 296°
2026-05-04 19:59 42.62728 -11.92924 34139 ft 414 kts 296°
2026-05-04 19:59 42.65239 -12.00008 34141 ft 416 kts 296°
2026-05-04 20:00 42.67741 -12.07085 34129 ft 414 kts 297°
2026-05-04 20:00 42.70202 -12.14064 34133 ft 411 kts 297°
2026-05-04 20:01 42.72671 -12.21086 34150 ft 412 kts 296°
2026-05-04 20:01 42.75141 -12.28124 34151 ft 412 kts 296°
2026-05-04 20:02 42.77607 -12.35171 34150 ft 414 kts 296°
2026-05-04 20:02 42.80090 -12.42285 34130 ft 416 kts 297°
2026-05-04 20:03 42.82555 -12.49365 34151 ft 413 kts 297°
2026-05-04 20:03 42.85001 -12.56410 34158 ft 413 kts 297°
2026-05-04 20:04 42.87457 -12.63498 34147 ft 413 kts 297°
2026-05-04 20:04 42.89907 -12.70591 34151 ft 413 kts 297°
2026-05-04 20:05 42.92352 -12.77685 34132 ft 414 kts 297°
2026-05-04 20:05 42.94796 -12.84796 34155 ft 413 kts 297°
2026-05-04 20:06 42.97233 -12.91904 34167 ft 413 kts 297°
2026-05-04 20:06 42.99648 -12.98975 34160 ft 413 kts 296°
2026-05-04 20:06 43.00958 -13.02462 34140 ft 411 kts 307°
2026-05-04 20:07 43.02866 -13.05305 34166 ft 407 kts 317°
2026-05-04 20:07 43.06634 -13.11079 34165 ft 410 kts 301°
2026-05-04 20:08 43.09348 -13.18013 34155 ft 414 kts 298°
2026-05-04 20:08 43.11794 -13.25166 34167 ft 415 kts 297°
2026-05-04 20:09 43.14157 -13.32381 34165 ft 415 kts 296°
2026-05-04 20:09 43.16489 -13.39608 34171 ft 415 kts 296°
2026-05-04 20:10 43.18820 -13.46860 34172 ft 415 kts 296°
2026-05-04 20:10 43.21138 -13.54096 34161 ft 414 kts 296°
2026-05-04 20:11 43.23437 -13.61287 34175 ft 416 kts 296°
2026-05-04 20:11 43.25751 -13.68551 34178 ft 417 kts 296°
2026-05-04 20:12 43.28085 -13.75893 34179 ft 417 kts 296°
2026-05-04 20:12 43.30383 -13.83145 34185 ft 417 kts 296°
2026-05-04 20:13 43.32690 -13.90443 34179 ft 416 kts 297°
2026-05-04 20:13 43.34994 -13.97752 34185 ft 417 kts 297°
2026-05-04 20:14 43.37292 -14.05062 34196 ft 418 kts 297°
2026-05-04 20:14 43.39593 -14.12405 34186 ft 418 kts 297°
2026-05-04 20:15 43.41875 -14.19709 34188 ft 418 kts 297°
2026-05-04 20:15 43.44170 -14.27071 34186 ft 418 kts 297°
2026-05-04 20:16 43.46452 -14.34412 34196 ft 418 kts 297°
2026-05-04 20:16 43.48731 -14.41766 34197 ft 418 kts 297°
2026-05-04 20:17 43.51010 -14.49139 34202 ft 419 kts 297°
2026-05-04 20:17 43.53295 -14.56555 34208 ft 420 kts 297°
2026-05-04 20:18 43.55571 -14.63959 34205 ft 419 kts 297°
2026-05-04 20:18 43.57845 -14.71381 34207 ft 419 kts 297°
2026-05-04 20:19 43.60081 -14.78814 34203 ft 422 kts 292°
2026-05-04 20:19 43.60604 -14.82823 34196 ft 431 kts 276°
2026-05-04 20:19 43.60603 -14.86977 34230 ft 434 kts 276°
2026-05-04 20:19 43.60892 -14.91025 34184 ft 425 kts 289°
2026-05-04 20:20 43.61727 -14.94877 34198 ft 421 kts 293°
2026-05-04 20:20 43.63746 -15.02468 34221 ft 421 kts 296°
2026-05-04 20:21 43.65938 -15.09961 34227 ft 421 kts 297°
2026-05-04 20:21 43.69299 -15.21179 34223 ft 421 kts 297°
2026-05-04 20:22 43.71535 -15.28635 34221 ft 421 kts 297°
2026-05-04 20:22 43.73771 -15.36116 34230 ft 421 kts 297°
2026-05-04 20:23 43.75992 -15.43564 34231 ft 421 kts 297°
2026-05-04 20:23 43.78220 -15.51061 34232 ft 421 kts 297°
2026-05-04 20:24 43.80437 -15.58540 34233 ft 421 kts 297°
2026-05-04 20:24 43.82656 -15.66050 34190 ft 421 kts 297°
2026-05-04 20:25 43.84870 -15.73565 34234 ft 421 kts 297°
2026-05-04 20:25 43.87075 -15.81072 34239 ft 421 kts 297°
2026-05-04 20:26 43.89280 -15.88596 34252 ft 422 kts 297°
2026-05-04 20:26 43.91478 -15.96125 34248 ft 422 kts 297°
2026-05-04 20:27 43.93679 -16.03687 34220 ft 422 kts 296°
2026-05-04 20:27 43.95879 -16.11265 34250 ft 423 kts 296°
2026-05-04 20:28 43.98056 -16.18788 34251 ft 423 kts 296°
2026-05-04 20:28 44.00237 -16.26346 34255 ft 423 kts 296°
2026-05-04 20:29 44.02421 -16.33939 34249 ft 423 kts 296°
2026-05-04 20:29 44.04607 -16.41563 34260 ft 424 kts 296°
2026-05-04 20:30 44.06788 -16.49192 34263 ft 424 kts 296°
2026-05-04 20:30 44.08961 -16.56818 34272 ft 426 kts 296°
2026-05-04 20:31 44.11142 -16.64491 34267 ft 426 kts 296°
2026-05-04 20:31 44.13304 -16.72123 34272 ft 426 kts 296°
2026-05-04 20:32 44.15480 -16.79830 34274 ft 427 kts 296°
2026-05-04 20:32 44.17648 -16.87531 34282 ft 428 kts 296°
2026-05-04 20:33 44.19813 -16.95247 34280 ft 428 kts 296°
2026-05-04 20:33 44.21981 -17.02997 34282 ft 430 kts 295°
2026-05-04 20:34 44.24134 -17.10718 34280 ft 430 kts 295°
2026-05-04 20:34 44.26297 -17.18499 34284 ft 430 kts 295°
2026-05-04 20:35 44.28452 -17.26273 34287 ft 431 kts 295°
2026-05-04 20:35 44.30611 -17.34091 34290 ft 431 kts 295°
2026-05-04 20:36 44.32763 -17.41906 34290 ft 431 kts 295°
2026-05-04 20:36 44.34551 -17.48418 34291 ft 432 kts 294°
2026-05-04 20:37 44.36696 -17.56254 34293 ft 433 kts 294°
2026-05-04 20:37 44.39189 -17.65396 34297 ft 433 kts 294°
2026-05-04 20:38 44.40984 -17.71997 34300 ft 434 kts 294°
2026-05-04 20:38 44.43123 -17.79889 34300 ft 434 kts 294°
2026-05-04 20:39 44.45251 -17.87765 34309 ft 434 kts 294°
2026-05-04 20:39 44.47367 -17.95623 34310 ft 435 kts 294°
2026-05-04 20:40 44.49501 -18.03573 34314 ft 436 kts 293°
2026-05-04 20:40 44.51632 -18.11539 34311 ft 436 kts 293°
2026-05-04 20:41 44.53744 -18.19459 34316 ft 436 kts 293°
2026-05-04 20:41 44.55862 -18.27430 34320 ft 436 kts 293°
2026-05-04 20:42 44.57976 -18.35414 34324 ft 436 kts 293°
2026-05-04 20:42 44.60087 -18.43410 34315 ft 437 kts 292°
2026-05-04 20:43 44.62190 -18.51402 34318 ft 437 kts 292°
2026-05-04 20:43 44.64292 -18.59422 34326 ft 438 kts 292°
2026-05-04 20:44 44.66393 -18.67460 34327 ft 439 kts 292°
2026-05-04 20:44 44.68489 -18.75511 34331 ft 439 kts 292°
2026-05-04 20:45 44.70584 -18.83581 34336 ft 439 kts 292°
2026-05-04 20:45 44.72663 -18.91624 34323 ft 438 kts 292°
2026-05-04 20:46 44.74733 -18.99653 34335 ft 438 kts 292°
2026-05-04 20:46 44.76807 -19.07727 34334 ft 439 kts 291°
2026-05-04 20:47 44.78877 -19.15813 34338 ft 439 kts 291°
2026-05-04 20:47 44.80938 -19.23895 34341 ft 439 kts 291°
2026-05-04 20:48 44.82999 -19.31997 34342 ft 439 kts 291°
2026-05-04 20:48 44.85053 -19.40098 34338 ft 439 kts 291°
2026-05-04 20:49 44.87100 -19.48195 34343 ft 438 kts 291°
2026-05-04 20:49 44.89126 -19.56236 34343 ft 438 kts 291°
2026-05-04 20:50 44.91161 -19.64343 34344 ft 438 kts 291°
2026-05-04 20:50 44.93191 -19.72456 34344 ft 438 kts 291°
2026-05-04 20:51 44.95218 -19.80584 34346 ft 438 kts 291°
2026-05-04 20:51 44.97234 -19.88698 34348 ft 439 kts 291°
2026-05-04 20:52 44.99236 -19.96783 34353 ft 438 kts 291°
2026-05-04 20:52 45.00874 -20.05066 34364 ft 439 kts 279°
2026-05-04 20:53 45.01990 -20.13570 34347 ft 440 kts 283°
2026-05-04 20:53 45.03198 -20.22047 34355 ft 440 kts 283°
2026-05-04 20:54 45.04418 -20.30548 34358 ft 440 kts 283°
2026-05-04 20:54 45.05629 -20.39036 34355 ft 440 kts 283°
2026-05-04 20:55 45.06825 -20.47458 34356 ft 440 kts 283°
2026-05-04 20:55 45.08022 -20.55940 34360 ft 440 kts 283°
2026-05-04 20:56 45.09215 -20.64437 34360 ft 440 kts 283°
2026-05-04 20:56 45.10401 -20.72936 34363 ft 440 kts 283°
2026-05-04 20:57 45.11581 -20.81437 34356 ft 440 kts 283°
2026-05-04 20:57 45.12752 -20.89928 34367 ft 440 kts 283°
2026-05-04 20:58 45.13911 -20.98378 34368 ft 440 kts 283°
2026-05-04 20:58 45.15072 -21.06890 34370 ft 440 kts 283°
2026-05-04 20:59 45.16326 -21.16138 34371 ft 440 kts 283°
2026-05-04 20:59 45.17470 -21.24635 34359 ft 440 kts 283°
2026-05-04 21:00 45.18426 -21.31765 34371 ft 439 kts 283°
2026-05-04 21:00 45.19559 -21.40269 34376 ft 439 kts 283°
2026-05-04 21:01 45.20685 -21.48772 34374 ft 439 kts 282°
2026-05-04 21:01 45.21803 -21.57261 34374 ft 439 kts 282°
2026-05-04 21:02 45.22917 -21.65774 34376 ft 439 kts 282°
2026-05-04 21:02 45.24017 -21.74233 34372 ft 438 kts 282°
2026-05-04 21:03 45.25119 -21.82757 34380 ft 439 kts 282°
2026-05-04 21:03 45.26214 -21.91275 34379 ft 439 kts 282°
2026-05-04 21:04 45.27300 -21.99777 34388 ft 438 kts 282°
2026-05-04 21:04 45.28381 -22.08302 34385 ft 438 kts 282°
2026-05-04 21:05 45.29457 -22.16829 34373 ft 438 kts 282°
2026-05-04 21:05 45.30524 -22.25348 34382 ft 438 kts 282°
2026-05-04 21:06 45.31584 -22.33854 34384 ft 438 kts 282°
2026-05-04 21:06 45.32638 -22.42373 34387 ft 438 kts 282°
2026-05-04 21:07 45.33687 -22.50903 34388 ft 438 kts 282°
2026-05-04 21:07 45.34727 -22.59420 34387 ft 437 kts 282°
2026-05-04 21:08 45.35759 -22.67921 34383 ft 437 kts 282°
2026-05-04 21:08 45.36780 -22.76382 34453 ft 438 kts 282°
2026-05-04 21:09 45.37292 -22.80653 34685 ft 437 kts 282°
2026-05-04 21:09 45.37804 -22.84931 34874 ft 437 kts 282°
2026-05-04 21:09 45.38313 -22.89199 35081 ft 437 kts 282°
2026-05-04 21:09 45.38820 -22.93465 35280 ft 437 kts 282°
2026-05-04 21:10 45.39323 -22.97710 35465 ft 437 kts 282°
2026-05-04 21:10 45.39827 -23.01986 35658 ft 437 kts 282°
2026-05-04 21:10 45.40329 -23.06250 35864 ft 437 kts 282°
2026-05-04 21:10 45.40828 -23.10503 36054 ft 436 kts 282°
2026-05-04 21:11 45.41325 -23.14760 36266 ft 435 kts 282°
2026-05-04 21:11 45.41819 -23.19000 36404 ft 435 kts 282°
2026-05-04 21:11 45.42803 -23.27490 36392 ft 433 kts 282°
2026-05-04 21:12 45.43770 -23.35896 36399 ft 434 kts 282°
2026-05-04 21:12 45.44740 -23.44377 36398 ft 434 kts 282°
2026-05-04 21:13 45.45703 -23.52857 36398 ft 434 kts 282°
2026-05-04 21:13 45.46660 -23.61343 36396 ft 434 kts 282°
2026-05-04 21:14 45.47609 -23.69819 36401 ft 434 kts 282°
2026-05-04 21:14 45.48554 -23.78311 36402 ft 434 kts 282°
2026-05-04 21:15 45.49491 -23.86795 36403 ft 433 kts 282°
2026-05-04 21:15 45.50421 -23.95282 36405 ft 433 kts 282°
2026-05-04 21:16 45.51338 -24.03702 36407 ft 433 kts 282°
2026-05-04 21:16 45.52257 -24.12197 36404 ft 433 kts 282°
2026-05-04 21:17 45.53168 -24.20684 36412 ft 433 kts 282°
2026-05-04 21:17 45.54072 -24.29168 36412 ft 433 kts 282°
2026-05-04 21:18 45.54969 -24.37649 36410 ft 433 kts 282°
2026-05-04 21:18 45.55860 -24.46137 36412 ft 432 kts 281°
2026-05-04 21:19 45.56745 -24.54619 36411 ft 432 kts 281°
2026-05-04 21:19 45.57622 -24.63099 36416 ft 432 kts 281°
2026-05-04 21:20 45.58489 -24.71542 36414 ft 432 kts 281°
2026-05-04 21:20 45.59352 -24.80008 36419 ft 432 kts 281°
2026-05-04 21:21 45.60211 -24.88499 36417 ft 432 kts 281°
2026-05-04 21:21 45.61064 -24.96997 36417 ft 432 kts 281°
2026-05-04 21:22 45.61911 -25.05491 36419 ft 431 kts 281°
2026-05-04 21:22 45.62745 -25.13937 36416 ft 430 kts 281°
2026-05-04 21:23 45.63576 -25.22401 36421 ft 430 kts 281°
2026-05-04 21:23 45.64400 -25.30870 36419 ft 430 kts 281°
2026-05-04 21:24 45.65212 -25.39285 36429 ft 430 kts 281°
2026-05-04 21:24 45.66022 -25.47741 36416 ft 430 kts 281°
2026-05-04 21:25 45.66826 -25.56204 36428 ft 429 kts 281°
2026-05-04 21:25 45.67624 -25.64664 36430 ft 429 kts 281°
2026-05-04 21:26 45.68417 -25.73147 36430 ft 429 kts 281°
2026-05-04 21:26 45.69199 -25.81582 36435 ft 428 kts 280°
2026-05-04 21:27 45.69976 -25.90031 36438 ft 428 kts 280°
2026-05-04 21:27 45.70743 -25.98435 36436 ft 428 kts 280°
2026-05-04 21:28 45.71507 -26.06890 36438 ft 428 kts 280°
2026-05-04 21:28 45.72264 -26.15325 36443 ft 428 kts 280°
2026-05-04 21:29 45.73015 -26.23773 36439 ft 428 kts 280°
2026-05-04 21:29 45.73762 -26.32240 36438 ft 428 kts 280°
2026-05-04 21:30 45.74502 -26.40708 36444 ft 428 kts 280°
2026-05-04 21:30 45.75236 -26.49178 36441 ft 428 kts 280°
2026-05-04 21:31 45.76321 -26.61852 36447 ft 428 kts 280°
2026-05-04 21:32 45.77039 -26.70318 36445 ft 428 kts 280°
2026-05-04 21:32 45.77746 -26.78739 36445 ft 428 kts 280°
2026-05-04 21:33 45.78449 -26.87194 36446 ft 428 kts 279°
2026-05-04 21:33 45.79149 -26.95672 36445 ft 428 kts 279°
2026-05-04 21:34 45.79841 -27.04148 36448 ft 427 kts 279°
2026-05-04 21:34 45.80526 -27.12607 36449 ft 427 kts 279°
2026-05-04 21:35 45.81205 -27.21076 36448 ft 427 kts 279°
2026-05-04 21:35 45.81872 -27.29467 36452 ft 427 kts 279°
2026-05-04 21:36 45.82538 -27.37937 36438 ft 427 kts 279°
2026-05-04 21:36 45.83199 -27.46419 36452 ft 427 kts 279°
2026-05-04 21:37 45.83853 -27.54898 36451 ft 427 kts 279°
2026-05-04 21:37 45.84499 -27.63356 36450 ft 427 kts 279°
2026-05-04 21:38 45.85140 -27.71821 36450 ft 426 kts 279°
2026-05-04 21:38 45.85774 -27.80289 36452 ft 426 kts 279°
2026-05-04 21:39 45.86401 -27.88742 36446 ft 426 kts 280°
2026-05-04 21:39 45.87014 -27.97106 36446 ft 425 kts 280°
2026-05-04 21:40 45.87628 -28.05556 36464 ft 425 kts 280°
2026-05-04 21:40 45.88235 -28.13994 36460 ft 425 kts 280°
2026-05-04 21:41 45.88836 -28.22443 36461 ft 425 kts 280°
2026-05-04 21:41 45.89428 -28.30850 36464 ft 425 kts 280°
2026-05-04 21:42 45.90015 -28.39280 36463 ft 422 kts 282°
2026-05-04 21:42 45.90586 -28.47581 36461 ft 422 kts 282°
2026-05-04 21:43 45.91158 -28.55967 36460 ft 422 kts 282°
2026-05-04 21:43 45.91722 -28.64337 36463 ft 422 kts 282°
2026-05-04 21:44 45.92281 -28.72718 36463 ft 422 kts 281°
2026-05-04 21:44 45.92741 -28.79690 36463 ft 422 kts 281°
2026-05-04 21:45 45.93289 -28.88085 36457 ft 421 kts 282°
2026-05-04 21:45 45.93830 -28.96465 36463 ft 420 kts 282°
2026-05-04 21:46 45.94363 -29.04795 36460 ft 418 kts 283°
2026-05-04 21:46 45.94890 -29.13116 36465 ft 418 kts 283°
2026-05-04 21:47 45.95410 -29.21397 36466 ft 418 kts 283°
2026-05-04 21:47 45.95926 -29.29724 36462 ft 418 kts 283°
2026-05-04 21:48 45.96436 -29.38045 36465 ft 418 kts 283°
2026-05-04 21:48 45.96941 -29.46389 36467 ft 421 kts 282°
2026-05-04 21:49 45.97448 -29.54850 36463 ft 427 kts 282°
2026-05-04 21:49 45.97955 -29.63427 36457 ft 433 kts 282°
2026-05-04 21:50 45.98457 -29.72021 36456 ft 432 kts 282°
2026-05-04 21:50 45.98953 -29.80623 36428 ft 432 kts 282°
2026-05-04 21:51 45.99443 -29.89235 36461 ft 432 kts 282°
2026-05-04 21:51 45.99927 -29.97840 36459 ft 432 kts 282°
2026-05-04 21:52 46.00933 -30.06239 36465 ft 425 kts 289°
2026-05-04 21:52 46.02110 -30.14492 36455 ft 425 kts 289°
2026-05-04 21:53 46.03310 -30.22823 36457 ft 425 kts 289°
2026-05-04 21:53 46.04503 -30.31136 36454 ft 423 kts 289°
2026-05-04 21:54 46.05686 -30.39427 36458 ft 423 kts 289°
2026-05-04 21:54 46.06862 -30.47710 36456 ft 423 kts 288°
2026-05-04 21:55 46.08034 -30.56010 36456 ft 423 kts 288°
2026-05-04 21:55 46.09201 -30.64323 36458 ft 423 kts 288°
2026-05-04 21:56 46.10362 -30.72639 36454 ft 423 kts 288°
2026-05-04 21:56 46.11513 -30.80932 36454 ft 422 kts 288°
2026-05-04 21:57 46.12658 -30.89223 36429 ft 421 kts 288°
2026-05-04 21:57 46.13796 -30.97516 36451 ft 422 kts 288°
2026-05-04 21:58 46.14930 -31.05828 36458 ft 422 kts 288°
2026-05-04 21:58 46.16057 -31.14126 36455 ft 422 kts 288°
2026-05-04 21:59 46.17179 -31.22441 36452 ft 422 kts 288°
2026-05-04 21:59 46.18295 -31.30763 36447 ft 422 kts 288°
2026-05-04 22:00 46.19395 -31.39006 36449 ft 421 kts 288°
2026-05-04 22:00 46.20494 -31.47298 36444 ft 420 kts 287°
2026-05-04 22:01 46.21586 -31.55587 36455 ft 421 kts 287°
2026-05-04 22:01 46.22675 -31.63891 36452 ft 421 kts 287°
2026-05-04 22:02 46.23758 -31.72206 36452 ft 421 kts 287°
2026-05-04 22:02 46.24833 -31.80510 36450 ft 421 kts 287°
2026-05-04 22:03 46.25901 -31.88805 36446 ft 420 kts 287°
2026-05-04 22:03 46.26963 -31.97104 36448 ft 420 kts 287°
2026-05-04 22:04 46.28018 -32.05403 36437 ft 420 kts 286°
2026-05-04 22:04 46.29069 -32.13719 36440 ft 420 kts 286°
2026-05-04 22:05 46.30112 -32.22020 36444 ft 420 kts 286°
2026-05-04 22:05 46.31152 -32.30347 36441 ft 420 kts 286°
2026-05-04 22:06 46.32185 -32.38674 36438 ft 420 kts 286°
2026-05-04 22:06 46.33205 -32.46943 36436 ft 420 kts 286°
2026-05-04 22:07 46.34232 -32.55324 36409 ft 420 kts 285°
2026-05-04 22:07 46.35238 -32.63588 36430 ft 421 kts 285°
2026-05-04 22:08 46.36249 -32.71939 36431 ft 421 kts 285°
2026-05-04 22:08 46.37253 -32.80293 36427 ft 421 kts 285°
2026-05-04 22:09 46.38251 -32.88647 36432 ft 421 kts 285°
2026-05-04 22:09 46.39240 -32.96979 36425 ft 420 kts 285°
2026-05-04 22:10 46.40224 -33.05326 36429 ft 420 kts 285°
2026-05-04 22:10 46.41201 -33.13671 36409 ft 420 kts 284°
2026-05-04 22:11 46.42173 -33.22017 36421 ft 420 kts 284°
2026-05-04 22:11 46.43135 -33.30341 36422 ft 420 kts 284°
2026-05-04 22:12 46.44087 -33.38633 36414 ft 420 kts 284°
2026-05-04 22:12 46.45039 -33.46975 36414 ft 419 kts 284°
2026-05-04 22:13 46.45983 -33.55307 36415 ft 418 kts 284°
2026-05-04 22:13 46.46919 -33.63625 36412 ft 418 kts 284°
2026-05-04 22:14 46.47851 -33.71962 36404 ft 417 kts 283°
2026-05-04 22:14 46.48774 -33.80276 36405 ft 417 kts 283°
2026-05-04 22:15 46.49686 -33.88540 36407 ft 417 kts 283°
2026-05-04 22:15 46.50602 -33.96908 36410 ft 417 kts 283°
2026-05-04 22:16 46.51497 -34.05143 36404 ft 416 kts 283°
2026-05-04 22:16 46.52393 -34.13435 36402 ft 416 kts 283°
2026-05-04 22:17 46.53283 -34.21732 36405 ft 416 kts 282°
2026-05-04 22:17 46.54168 -34.30046 36384 ft 417 kts 282°
2026-05-04 22:18 46.55047 -34.38365 36400 ft 417 kts 282°
2026-05-04 22:18 46.55922 -34.46699 36400 ft 417 kts 282°
2026-05-04 22:19 46.56790 -34.55031 36398 ft 417 kts 281°
2026-05-04 22:19 46.57652 -34.63368 36398 ft 417 kts 281°
2026-05-04 22:20 46.58506 -34.71688 36392 ft 417 kts 281°
2026-05-04 22:20 46.59351 -34.79971 36392 ft 417 kts 281°
2026-05-04 22:21 46.60195 -34.88319 36389 ft 417 kts 281°
2026-05-04 22:21 46.61033 -34.96662 36387 ft 417 kts 281°
2026-05-04 22:22 46.61864 -35.05010 36387 ft 417 kts 281°
2026-05-04 22:22 46.62688 -35.13342 36380 ft 417 kts 281°
2026-05-04 22:23 46.63507 -35.21686 36384 ft 416 kts 281°
2026-05-04 22:23 46.64320 -35.30031 36376 ft 416 kts 281°
2026-05-04 22:24 46.65126 -35.38380 36373 ft 417 kts 280°
2026-05-04 22:24 46.65929 -35.46751 36373 ft 420 kts 280°
2026-05-04 22:25 46.66729 -35.55165 36372 ft 420 kts 279°
2026-05-04 22:25 46.67524 -35.63596 36371 ft 420 kts 279°
2026-05-04 22:26 46.68314 -35.72030 36369 ft 421 kts 279°
2026-05-04 22:26 46.69091 -35.80407 36360 ft 421 kts 279°
2026-05-04 22:27 46.69870 -35.88865 36357 ft 421 kts 279°
2026-05-04 22:27 46.70641 -35.97316 36342 ft 421 kts 279°
2026-05-04 22:28 46.71409 -36.05797 36358 ft 422 kts 278°
2026-05-04 22:28 46.72170 -36.14271 36349 ft 422 kts 278°
2026-05-04 22:29 46.72796 -36.21299 36349 ft 422 kts 278°
2026-05-04 22:29 46.73547 -36.29801 36347 ft 423 kts 278°
2026-05-04 22:30 46.74292 -36.38304 36344 ft 423 kts 278°
2026-05-04 22:30 46.75030 -36.46804 36338 ft 423 kts 278°
2026-05-04 22:31 46.75760 -36.55286 36323 ft 423 kts 277°
2026-05-04 22:31 46.76486 -36.63788 36329 ft 422 kts 277°
2026-05-04 22:32 46.77203 -36.72276 36330 ft 422 kts 277°
2026-05-04 22:32 46.77911 -36.80720 36325 ft 421 kts 277°
2026-05-04 22:33 46.78614 -36.89191 36319 ft 421 kts 277°
2026-05-04 22:33 46.79312 -36.97677 36320 ft 421 kts 277°
2026-05-04 22:34 46.80004 -37.06164 36317 ft 421 kts 277°
2026-05-04 22:34 46.80690 -37.14660 36300 ft 421 kts 276°
2026-05-04 22:35 46.81371 -37.23170 36311 ft 422 kts 276°
2026-05-04 22:35 46.82044 -37.31672 36308 ft 423 kts 276°
2026-05-04 22:36 46.82715 -37.40221 36305 ft 424 kts 276°
2026-05-04 22:36 46.83381 -37.48784 36298 ft 424 kts 276°
2026-05-04 22:37 46.84040 -37.57355 36293 ft 424 kts 276°
2026-05-04 22:37 46.84691 -37.65896 36293 ft 424 kts 276°
2026-05-04 22:38 46.85337 -37.74462 36279 ft 425 kts 275°
2026-05-04 22:38 46.85978 -37.83055 36284 ft 426 kts 275°
2026-05-04 22:39 46.86611 -37.91615 36285 ft 426 kts 275°
2026-05-04 22:39 46.87239 -38.00204 36276 ft 426 kts 275°
2026-05-04 22:40 46.87862 -38.08819 36276 ft 426 kts 275°
2026-05-04 22:40 46.88479 -38.17429 36270 ft 426 kts 275°
2026-05-04 22:41 46.89089 -38.26045 36271 ft 426 kts 275°
2026-05-04 22:41 46.89691 -38.34640 36271 ft 426 kts 274°
2026-05-04 22:42 46.90287 -38.43251 36259 ft 427 kts 274°
2026-05-04 22:42 46.90883 -38.51938 36260 ft 430 kts 273°
2026-05-04 22:43 46.91472 -38.60643 36261 ft 430 kts 273°
2026-05-04 22:43 46.92051 -38.69287 36252 ft 430 kts 273°
2026-05-04 22:44 46.92626 -38.77968 36253 ft 430 kts 273°
2026-05-04 22:44 46.93197 -38.86684 36247 ft 430 kts 273°
2026-05-04 22:45 46.93759 -38.95388 36239 ft 429 kts 272°
2026-05-04 22:45 46.94595 -39.08458 36234 ft 430 kts 272°
2026-05-04 22:46 46.95145 -39.17186 36227 ft 430 kts 272°
2026-05-04 22:46 46.95686 -39.25851 36227 ft 430 kts 272°
2026-05-04 22:47 46.96223 -39.34577 36222 ft 430 kts 271°
2026-05-04 22:47 46.96754 -39.43301 36216 ft 430 kts 271°
2026-05-04 22:48 46.97279 -39.52033 36218 ft 432 kts 271°
2026-05-04 22:48 46.97801 -39.60814 36208 ft 433 kts 270°
2026-05-04 22:49 46.98316 -39.69605 36204 ft 433 kts 270°
2026-05-04 22:49 46.98826 -39.78409 36192 ft 433 kts 270°
2026-05-04 22:50 46.99327 -39.87181 36190 ft 433 kts 270°
2026-05-04 22:50 46.99824 -39.95990 36189 ft 433 kts 270°
2026-05-04 22:51 47.00202 -40.04790 36184 ft 433 kts 269°
2026-05-04 22:51 47.00562 -40.13621 36187 ft 435 kts 268°
2026-05-04 22:52 47.00934 -40.22478 36172 ft 436 kts 268°
2026-05-04 22:52 47.01300 -40.31345 36162 ft 436 kts 268°
2026-05-04 22:53 47.01659 -40.40206 36171 ft 436 kts 268°
2026-05-04 22:53 47.02009 -40.49016 36155 ft 436 kts 268°
2026-05-04 22:54 47.02355 -40.57873 36152 ft 436 kts 268°
2026-05-04 22:54 47.02693 -40.66744 36183 ft 436 kts 268°
2026-05-04 22:55 47.03026 -40.75629 36143 ft 437 kts 268°
2026-05-04 22:55 47.03352 -40.84519 36139 ft 437 kts 268°
2026-05-04 22:56 47.03670 -40.93400 36128 ft 437 kts 267°
2026-05-04 22:56 47.03983 -41.02306 36119 ft 437 kts 267°
2026-05-04 22:57 47.04286 -41.11151 36119 ft 437 kts 267°
2026-05-04 22:57 47.04585 -41.20057 36110 ft 437 kts 267°
2026-05-04 22:58 47.04875 -41.28926 36117 ft 435 kts 267°
2026-05-04 22:58 47.05159 -41.37789 36095 ft 436 kts 267°
2026-05-04 22:59 47.05436 -41.46674 36089 ft 436 kts 267°
2026-05-04 22:59 47.05707 -41.55558 36080 ft 436 kts 266°
2026-05-04 23:00 47.05967 -41.64361 36071 ft 436 kts 266°
2026-05-04 23:00 47.06224 -41.73228 36071 ft 436 kts 266°
2026-05-04 23:01 47.06474 -41.82124 36074 ft 436 kts 266°
2026-05-04 23:01 47.06717 -41.91011 36055 ft 436 kts 266°
2026-05-04 23:02 47.06952 -41.99887 36053 ft 436 kts 266°
2026-05-04 23:02 47.07182 -42.08781 36042 ft 436 kts 266°
2026-05-04 23:03 47.07404 -42.17663 36040 ft 436 kts 266°
2026-05-04 23:03 47.07620 -42.26578 36038 ft 436 kts 266°
2026-05-04 23:04 47.07828 -42.35454 36033 ft 436 kts 266°
2026-05-04 23:04 47.08029 -42.44330 36049 ft 434 kts 266°
2026-05-04 23:05 47.08224 -42.53194 36032 ft 435 kts 266°
2026-05-04 23:05 47.08411 -42.62060 36104 ft 436 kts 266°
2026-05-04 23:06 47.08501 -42.66445 36314 ft 435 kts 266°
2026-05-04 23:06 47.08591 -42.70875 36512 ft 434 kts 266°
2026-05-04 23:06 47.08679 -42.75336 36714 ft 433 kts 266°
2026-05-04 23:06 47.08764 -42.79737 36906 ft 432 kts 266°
2026-05-04 23:07 47.08847 -42.84091 37102 ft 432 kts 266°
2026-05-04 23:07 47.08930 -42.88550 37289 ft 431 kts 266°
2026-05-04 23:07 47.09009 -42.92880 37467 ft 430 kts 266°
2026-05-04 23:07 47.09087 -42.97264 37693 ft 429 kts 265°
2026-05-04 23:08 47.09163 -43.01615 37954 ft 426 kts 265°
2026-05-04 23:08 47.09238 -43.05960 38057 ft 426 kts 265°
2026-05-04 23:08 47.09381 -43.14641 38027 ft 425 kts 265°
2026-05-04 23:09 47.09518 -43.23320 38029 ft 425 kts 265°
2026-05-04 23:09 47.09649 -43.31998 38031 ft 425 kts 265°
2026-05-04 23:10 47.09772 -43.40672 38031 ft 425 kts 265°
2026-05-04 23:10 47.09890 -43.49343 38030 ft 425 kts 265°
2026-05-04 23:11 47.10001 -43.58025 38039 ft 424 kts 265°
2026-05-04 23:11 47.10104 -43.66669 38035 ft 424 kts 265°
2026-05-04 23:12 47.10201 -43.75262 38031 ft 424 kts 265°
2026-05-04 23:12 47.10292 -43.83894 38034 ft 424 kts 264°
2026-05-04 23:13 47.10376 -43.92537 38041 ft 423 kts 264°
2026-05-04 23:13 47.10454 -44.01183 38033 ft 423 kts 264°
2026-05-04 23:14 47.10514 -44.08423 38034 ft 423 kts 264°
2026-05-04 23:14 47.10579 -44.17017 38067 ft 424 kts 264°
2026-05-04 23:15 47.10639 -44.25660 38040 ft 425 kts 264°
2026-05-04 23:15 47.10692 -44.34345 38036 ft 425 kts 264°
2026-05-04 23:16 47.10739 -44.43005 38031 ft 425 kts 264°
2026-05-04 23:16 47.10779 -44.51677 38034 ft 425 kts 264°
2026-05-04 23:17 47.10812 -44.60312 38033 ft 424 kts 264°
2026-05-04 23:17 47.10839 -44.68984 38037 ft 424 kts 264°
2026-05-04 23:18 47.10859 -44.77632 38052 ft 423 kts 264°
2026-05-04 23:18 47.10873 -44.86265 38035 ft 423 kts 264°
2026-05-04 23:19 47.10880 -44.94884 38036 ft 423 kts 264°
2026-05-04 23:19 47.10881 -45.03522 38039 ft 423 kts 264°
2026-05-04 23:20 47.10875 -45.12170 38034 ft 423 kts 264°
2026-05-04 23:20 47.10863 -45.20795 38032 ft 423 kts 263°
2026-05-04 23:21 47.10845 -45.29410 38046 ft 423 kts 264°
2026-05-04 23:21 47.10820 -45.37991 38032 ft 423 kts 263°
2026-05-04 23:22 47.10788 -45.46633 38028 ft 424 kts 263°
2026-05-04 23:22 47.10750 -45.55287 38023 ft 424 kts 263°
2026-05-04 23:23 47.10705 -45.63929 38024 ft 424 kts 263°
2026-05-04 23:23 47.10654 -45.72567 38023 ft 423 kts 263°
2026-05-04 23:24 47.10597 -45.81206 38018 ft 423 kts 263°
2026-05-04 23:24 47.10533 -45.89843 38097 ft 422 kts 263°
2026-05-04 23:25 47.10462 -45.98474 38015 ft 423 kts 263°
2026-05-04 23:25 47.10385 -46.07102 38011 ft 424 kts 263°
2026-05-04 23:26 47.10301 -46.15753 38005 ft 424 kts 263°
2026-05-04 23:26 47.10211 -46.24409 38008 ft 424 kts 263°
2026-05-04 23:27 47.10114 -46.33061 38002 ft 424 kts 263°
2026-05-04 23:27 47.10012 -46.41677 38009 ft 424 kts 263°
2026-05-04 23:28 47.09902 -46.50334 38034 ft 425 kts 263°
2026-05-04 23:28 47.09785 -46.59004 38007 ft 428 kts 263°
2026-05-04 23:29 47.09661 -46.67733 38003 ft 428 kts 263°
2026-05-04 23:29 47.09531 -46.76443 37997 ft 428 kts 263°
2026-05-04 23:30 47.09394 -46.85166 38004 ft 427 kts 263°
2026-05-04 23:30 47.09250 -46.93879 37989 ft 427 kts 263°
2026-05-04 23:31 47.09100 -47.02599 38010 ft 427 kts 263°
2026-05-04 23:31 47.08943 -47.11310 37995 ft 427 kts 263°
2026-05-04 23:32 47.08780 -47.20027 37984 ft 428 kts 263°
2026-05-04 23:32 47.08611 -47.28705 37985 ft 428 kts 263°
2026-05-04 23:33 47.08433 -47.37452 37986 ft 428 kts 263°
2026-05-04 23:33 47.08250 -47.46183 37976 ft 428 kts 263°
2026-05-04 23:34 47.08060 -47.54897 37976 ft 428 kts 263°
2026-05-04 23:34 47.07863 -47.63632 38023 ft 428 kts 263°
2026-05-04 23:35 47.07659 -47.72367 37970 ft 430 kts 263°
2026-05-04 23:35 47.07448 -47.81138 37968 ft 430 kts 263°
2026-05-04 23:36 47.07231 -47.89883 37961 ft 430 kts 263°
2026-05-04 23:36 47.07006 -47.98649 37961 ft 430 kts 263°
2026-05-04 23:37 47.06775 -48.07399 37961 ft 430 kts 263°
2026-05-04 23:37 47.06537 -48.16174 37950 ft 430 kts 263°
2026-05-04 23:38 47.06295 -48.24844 37972 ft 429 kts 263°
2026-05-04 23:38 47.06045 -48.33575 37947 ft 429 kts 263°
2026-05-04 23:39 47.05788 -48.42322 37944 ft 429 kts 263°
2026-05-04 23:39 47.05524 -48.51070 37944 ft 429 kts 263°
2026-05-04 23:40 47.05253 -48.59797 37938 ft 429 kts 263°
2026-05-04 23:40 47.04976 -48.68534 37936 ft 429 kts 263°
2026-05-04 23:41 47.04692 -48.77291 37944 ft 429 kts 263°
2026-05-04 23:41 47.04402 -48.86013 37933 ft 428 kts 263°
2026-05-04 23:42 47.04105 -48.94737 37929 ft 429 kts 263°
2026-05-04 23:42 47.03805 -49.03393 37919 ft 429 kts 263°
2026-05-04 23:43 47.03514 -49.11895 37919 ft 429 kts 263°
2026-05-04 23:43 47.03213 -49.20835 37918 ft 429 kts 263°
2026-05-04 23:44 47.02912 -49.29555 37910 ft 428 kts 263°
2026-05-04 23:44 47.02605 -49.38253 37917 ft 427 kts 263°
2026-05-04 23:45 47.02292 -49.46919 37912 ft 425 kts 263°
2026-05-04 23:45 47.01972 -49.55597 37902 ft 426 kts 263°
2026-05-04 23:46 47.01646 -49.64264 37905 ft 425 kts 263°
2026-05-04 23:46 47.01315 -49.72912 37905 ft 425 kts 263°
2026-05-04 23:47 47.00976 -49.81559 37905 ft 425 kts 263°
2026-05-04 23:47 47.00631 -49.90207 37905 ft 425 kts 263°
2026-05-04 23:48 47.00283 -49.98796 37905 ft 424 kts 263°
2026-05-04 23:48 46.99926 -50.07401 37900 ft 424 kts 263°
2026-05-04 23:49 46.99563 -50.16030 37897 ft 424 kts 263°
2026-05-04 23:49 46.99192 -50.24662 37889 ft 424 kts 262°
2026-05-04 23:50 46.98817 -50.33267 37891 ft 424 kts 262°
2026-05-04 23:50 46.98435 -50.41859 37881 ft 424 kts 262°
2026-05-04 23:51 46.98047 -50.50458 37881 ft 424 kts 262°
2026-05-04 23:51 46.97652 -50.59050 37882 ft 422 kts 262°
2026-05-04 23:52 46.97255 -50.67560 37877 ft 422 kts 262°
2026-05-04 23:52 46.96849 -50.76131 37874 ft 422 kts 262°
2026-05-04 23:53 46.96437 -50.84680 37873 ft 422 kts 262°
2026-05-04 23:53 46.96018 -50.93248 37873 ft 422 kts 262°
2026-05-04 23:54 46.95591 -51.01829 37868 ft 422 kts 262°
2026-05-04 23:54 46.95160 -51.10395 37895 ft 422 kts 262°
2026-05-04 23:55 46.94726 -51.18863 37853 ft 421 kts 262°
2026-05-04 23:56 46.94058 -51.31668 37859 ft 421 kts 262°
2026-05-04 23:56 46.93604 -51.40233 37847 ft 421 kts 262°
2026-05-04 23:57 46.93144 -51.48769 37854 ft 421 kts 262°
2026-05-04 23:57 46.92679 -51.57293 37843 ft 421 kts 262°
2026-05-04 23:58 46.92207 -51.65825 37847 ft 421 kts 262°
2026-05-04 23:58 46.91733 -51.74283 37841 ft 419 kts 262°
2026-05-04 23:59 46.91251 -51.82769 37838 ft 419 kts 262°
2026-05-04 23:59 46.90763 -51.91239 37842 ft 419 kts 262°
2026-05-05 00:00 46.90269 -51.99720 37835 ft 419 kts 262°
2026-05-05 00:00 46.89768 -52.08199 37827 ft 418 kts 262°
2026-05-05 00:01 46.89262 -52.16666 37821 ft 418 kts 262°
2026-05-05 00:01 46.88751 -52.25092 37839 ft 419 kts 261°
2026-05-05 00:02 46.88231 -52.33572 37804 ft 420 kts 261°
2026-05-05 00:02 46.87703 -52.42084 37804 ft 420 kts 261°
2026-05-05 00:03 46.87169 -52.50590 37782 ft 420 kts 261°
2026-05-05 00:03 46.86628 -52.59090 37782 ft 420 kts 261°
2026-05-05 00:04 46.86086 -52.67522 37780 ft 420 kts 261°
2026-05-05 00:04 46.85533 -52.76017 37760 ft 420 kts 261°
2026-05-05 00:05 46.84974 -52.84518 37773 ft 420 kts 261°
2026-05-05 00:05 46.84409 -52.92997 37747 ft 419 kts 261°
2026-05-05 00:06 46.83937 -53.00022 37749 ft 420 kts 261°
2026-05-05 00:06 46.83360 -53.08509 37756 ft 420 kts 261°
2026-05-05 00:07 46.82778 -53.16982 37748 ft 420 kts 261°
2026-05-05 00:07 46.82190 -53.25453 37747 ft 419 kts 261°
2026-05-05 00:08 46.81596 -53.33913 37756 ft 419 kts 261°
2026-05-05 00:08 46.80995 -53.42379 37748 ft 421 kts 261°
2026-05-05 00:09 46.80389 -53.50829 37760 ft 421 kts 261°
2026-05-05 00:09 46.79773 -53.59326 37762 ft 421 kts 261°
2026-05-05 00:10 46.79151 -53.67816 37756 ft 421 kts 261°
2026-05-05 00:10 46.78524 -53.76294 37760 ft 421 kts 261°
2026-05-05 00:11 46.77889 -53.84795 37755 ft 421 kts 261°
2026-05-05 00:11 46.77253 -53.93225 37752 ft 421 kts 261°
2026-05-05 00:12 46.76605 -54.01719 37768 ft 421 kts 261°
2026-05-05 00:12 46.75954 -54.10177 37759 ft 420 kts 260°
2026-05-05 00:13 46.75294 -54.18656 37775 ft 421 kts 260°
2026-05-05 00:13 46.74629 -54.27126 37770 ft 421 kts 260°
2026-05-05 00:14 46.73962 -54.35539 37764 ft 421 kts 260°
2026-05-05 00:14 46.73286 -54.43984 37779 ft 421 kts 260°
2026-05-05 00:15 46.72603 -54.52445 37804 ft 421 kts 260°
2026-05-05 00:15 46.71911 -54.60933 37782 ft 422 kts 260°
2026-05-05 00:16 46.71212 -54.69419 37791 ft 422 kts 260°
2026-05-05 00:16 46.70507 -54.77910 37779 ft 422 kts 260°
2026-05-05 00:17 46.69798 -54.86367 37781 ft 422 kts 260°
2026-05-05 00:17 46.69081 -54.94847 37776 ft 422 kts 260°
2026-05-05 00:18 46.68362 -55.03271 37775 ft 422 kts 260°
2026-05-05 00:18 46.67633 -55.11744 37776 ft 421 kts 260°
2026-05-05 00:19 46.66901 -55.20163 37777 ft 420 kts 260°
2026-05-05 00:19 46.66161 -55.28615 37781 ft 420 kts 260°
2026-05-05 00:20 46.65415 -55.37055 37772 ft 420 kts 259°
2026-05-05 00:20 46.64664 -55.45477 37774 ft 420 kts 259°
2026-05-05 00:21 46.63911 -55.53848 37780 ft 420 kts 259°
2026-05-05 00:21 46.63148 -55.62271 37802 ft 420 kts 259°
2026-05-05 00:22 46.62376 -55.70717 37782 ft 421 kts 259°
2026-05-05 00:22 46.61599 -55.79146 37777 ft 420 kts 259°
2026-05-05 00:23 46.60815 -55.87580 37767 ft 420 kts 259°
2026-05-05 00:23 46.60033 -55.95930 37764 ft 420 kts 259°
2026-05-05 00:24 46.59237 -56.04356 37763 ft 420 kts 259°
2026-05-05 00:24 46.58436 -56.12767 37757 ft 420 kts 259°
2026-05-05 00:25 46.57524 -56.22259 37768 ft 422 kts 259°
2026-05-05 00:25 46.56846 -56.29270 37786 ft 422 kts 259°
2026-05-05 00:26 46.55970 -56.38256 37783 ft 422 kts 259°
2026-05-05 00:26 46.55139 -56.46712 37786 ft 422 kts 259°
2026-05-05 00:27 46.54304 -56.55141 37771 ft 422 kts 259°
2026-05-05 00:27 46.53469 -56.63501 37774 ft 422 kts 259°
2026-05-05 00:28 46.52622 -56.71923 37786 ft 422 kts 259°
2026-05-05 00:28 46.51767 -56.80368 37772 ft 424 kts 258°
2026-05-05 00:29 46.50150 -56.88524 37774 ft 422 kts 251°
2026-05-05 00:29 46.48352 -56.96606 37782 ft 422 kts 250°
2026-05-05 00:30 46.46546 -57.04638 37777 ft 422 kts 250°
2026-05-05 00:30 46.44711 -57.12769 37781 ft 421 kts 250°
2026-05-05 00:31 46.42894 -57.20783 37780 ft 421 kts 250°
2026-05-05 00:31 46.41061 -57.28846 37774 ft 421 kts 250°
2026-05-05 00:32 46.39224 -57.36889 37782 ft 421 kts 250°
2026-05-05 00:32 46.37377 -57.44947 37788 ft 423 kts 250°
2026-05-05 00:33 46.35513 -57.53052 37784 ft 425 kts 250°
2026-05-05 00:33 46.33655 -57.61096 37778 ft 424 kts 250°
2026-05-05 00:34 46.31784 -57.69169 37785 ft 424 kts 250°
2026-05-05 00:34 46.29902 -57.77262 37790 ft 424 kts 250°
2026-05-05 00:35 46.28017 -57.85334 37775 ft 424 kts 250°
2026-05-05 00:35 46.26123 -57.93416 37776 ft 424 kts 250°
2026-05-05 00:36 46.24241 -58.01415 37780 ft 424 kts 250°
2026-05-05 00:36 46.22332 -58.09501 37781 ft 425 kts 250°
2026-05-05 00:37 46.20419 -58.17576 37781 ft 427 kts 250°
2026-05-05 00:37 46.18491 -58.25682 37783 ft 426 kts 250°
2026-05-05 00:38 46.16564 -58.33752 37775 ft 426 kts 250°
2026-05-05 00:38 46.14642 -58.41777 37774 ft 426 kts 250°
2026-05-05 00:39 46.12700 -58.49853 37783 ft 426 kts 250°
2026-05-05 00:39 46.10755 -58.57911 37777 ft 424 kts 250°
2026-05-05 00:40 46.08813 -58.65933 37785 ft 424 kts 250°
2026-05-05 00:40 46.06869 -58.73932 37815 ft 424 kts 250°
2026-05-05 00:41 46.04919 -58.81925 37792 ft 428 kts 250°
2026-05-05 00:41 46.02941 -58.90005 37780 ft 428 kts 250°
2026-05-05 00:42 46.00961 -58.98063 37781 ft 426 kts 249°
2026-05-05 00:42 45.98987 -59.06069 37785 ft 425 kts 249°
2026-05-05 00:43 45.97021 -59.14013 37773 ft 425 kts 249°
2026-05-05 00:43 45.95037 -59.22007 37776 ft 425 kts 249°
2026-05-05 00:44 45.93044 -59.30004 37778 ft 425 kts 249°
2026-05-05 00:44 45.91054 -59.37963 37776 ft 425 kts 249°
2026-05-05 00:45 45.89050 -59.45950 37774 ft 426 kts 249°
2026-05-05 00:45 45.87039 -59.53936 37769 ft 426 kts 249°
2026-05-05 00:46 45.85033 -59.61875 37770 ft 426 kts 249°
2026-05-05 00:46 45.83013 -59.69840 37756 ft 426 kts 249°
2026-05-05 00:47 45.80984 -59.77817 37758 ft 426 kts 249°
2026-05-05 00:47 45.78952 -59.85774 37758 ft 425 kts 249°
2026-05-05 00:48 45.76915 -59.93724 37743 ft 425 kts 249°
2026-05-05 00:48 45.74874 -60.01665 37756 ft 425 kts 249°
2026-05-05 00:49 45.72841 -60.09545 37757 ft 428 kts 249°
2026-05-05 00:49 45.70772 -60.17537 37747 ft 428 kts 249°
2026-05-05 00:50 45.68697 -60.25527 37746 ft 428 kts 249°
2026-05-05 00:50 45.66630 -60.33460 37754 ft 422 kts 249°
2026-05-05 00:51 45.64591 -60.41256 37753 ft 420 kts 249°
2026-05-05 00:51 45.62553 -60.49025 37743 ft 421 kts 249°
2026-05-05 00:52 45.60500 -60.56823 37459 ft 415 kts 249°
2026-05-05 00:52 45.59485 -60.60671 36717 ft 416 kts 249°
2026-05-05 00:52 45.58462 -60.64543 36081 ft 414 kts 249°
2026-05-05 00:52 45.57444 -60.68385 35470 ft 414 kts 250°
2026-05-05 00:53 45.56432 -60.72202 34843 ft 413 kts 250°
2026-05-05 00:53 45.55417 -60.76025 34237 ft 412 kts 250°
2026-05-05 00:53 45.54400 -60.79848 33606 ft 411 kts 250°
2026-05-05 00:53 45.53387 -60.83648 32875 ft 410 kts 250°
2026-05-05 00:54 45.52372 -60.87449 32165 ft 408 kts 250°
2026-05-05 00:54 45.51363 -60.91223 31473 ft 407 kts 250°
2026-05-05 00:54 45.50358 -60.94978 30794 ft 405 kts 250°
2026-05-05 00:54 45.49355 -60.98716 30121 ft 403 kts 250°
2026-05-05 00:55 45.48356 -61.02437 29325 ft 401 kts 250°
2026-05-05 00:55 45.47380 -61.06066 28477 ft 399 kts 250°
2026-05-05 00:55 45.46393 -61.09730 27819 ft 395 kts 250°
2026-05-05 00:55 45.45401 -61.13403 27385 ft 400 kts 250°
2026-05-05 00:56 45.44400 -61.17109 26980 ft 401 kts 250°
2026-05-05 00:56 45.43399 -61.20808 26550 ft 401 kts 250°
2026-05-05 00:56 45.42392 -61.24521 26115 ft 401 kts 250°
2026-05-05 00:56 45.41386 -61.28227 25701 ft 401 kts 250°
2026-05-05 00:57 45.40382 -61.31917 25286 ft 399 kts 250°
2026-05-05 00:57 45.39384 -61.35582 24875 ft 395 kts 250°
2026-05-05 00:57 45.38400 -61.39190 24474 ft 391 kts 250°
2026-05-05 00:57 45.37432 -61.42735 24069 ft 388 kts 250°
2026-05-05 00:58 45.36460 -61.46289 23663 ft 383 kts 250°
2026-05-05 00:58 45.35497 -61.49804 23274 ft 380 kts 250°
2026-05-05 00:58 45.34543 -61.53280 22836 ft 376 kts 250°
2026-05-05 00:58 45.33593 -61.56737 22443 ft 375 kts 250°
2026-05-05 00:59 45.32646 -61.60179 22059 ft 373 kts 250°
2026-05-05 00:59 45.31703 -61.63600 21678 ft 371 kts 250°
2026-05-05 00:59 45.30760 -61.67018 21302 ft 370 kts 250°
2026-05-05 00:59 45.29829 -61.70387 20928 ft 368 kts 250°
2026-05-05 01:00 45.28907 -61.73720 20565 ft 366 kts 250°
2026-05-05 01:00 45.27965 -61.77119 20198 ft 365 kts 250°
2026-05-05 01:00 45.27049 -61.80419 19829 ft 363 kts 250°
2026-05-05 01:00 45.26125 -61.83746 19460 ft 362 kts 250°
2026-05-05 01:01 45.25203 -61.87061 19084 ft 361 kts 250°
2026-05-05 01:01 45.24613 -61.89179 18866 ft 360 kts 250°
2026-05-05 01:01 45.24152 -61.90833 18695 ft 359 kts 250°
2026-05-05 01:01 45.23236 -61.94114 18344 ft 358 kts 250°
2026-05-05 01:02 45.22421 -61.97447 17872 ft 355 kts 254°
2026-05-05 01:02 45.21667 -62.00770 17600 ft 355 kts 253°
2026-05-05 01:02 45.20904 -62.04084 17306 ft 354 kts 253°
2026-05-05 01:02 45.20138 -62.07392 16979 ft 353 kts 253°
2026-05-05 01:03 45.19368 -62.10698 16618 ft 352 kts 253°
2026-05-05 01:03 45.18602 -62.13981 16258 ft 351 kts 253°
2026-05-05 01:03 45.17846 -62.17214 15900 ft 350 kts 253°
2026-05-05 01:03 45.17081 -62.20480 15543 ft 348 kts 253°
2026-05-05 01:04 45.16318 -62.23732 15167 ft 347 kts 253°
2026-05-05 01:04 45.14800 -62.30191 14474 ft 344 kts 253°
2026-05-05 01:04 45.14043 -62.33407 14131 ft 343 kts 253°
2026-05-05 01:05 45.13291 -62.36596 13784 ft 343 kts 253°
2026-05-05 01:05 45.12535 -62.39794 13396 ft 342 kts 253°
2026-05-05 01:05 45.11782 -62.42977 13024 ft 340 kts 253°
2026-05-05 01:05 45.11034 -62.46134 12669 ft 334 kts 253°
2026-05-05 01:06 45.10318 -62.49149 12332 ft 312 kts 253°
2026-05-05 01:06 45.09650 -62.51974 12046 ft 292 kts 255°
2026-05-05 01:06 45.09372 -62.54645 11906 ft 268 kts 268°
2026-05-05 01:06 45.09188 -62.57169 11797 ft 247 kts 263°
2026-05-05 01:07 45.08969 -62.59489 11694 ft 229 kts 263°
2026-05-05 01:07 45.08776 -62.61662 11592 ft 218 kts 264°
2026-05-05 01:07 45.08593 -62.63789 11480 ft 224 kts 264°
2026-05-05 01:07 45.08405 -62.66027 11254 ft 231 kts 264°
2026-05-05 01:08 45.08217 -62.68303 10996 ft 234 kts 264°
2026-05-05 01:08 45.08030 -62.70580 10725 ft 234 kts 264°
2026-05-05 01:08 45.07843 -62.72875 10425 ft 234 kts 264°
2026-05-05 01:08 45.07659 -62.75133 10151 ft 234 kts 264°
2026-05-05 01:09 45.07475 -62.77398 9983 ft 229 kts 264°
2026-05-05 01:09 45.07294 -62.79618 9718 ft 227 kts 264°
2026-05-05 01:09 45.07114 -62.81828 9413 ft 225 kts 264°
2026-05-05 01:09 45.06935 -62.84013 9113 ft 222 kts 264°
2026-05-05 01:10 45.06759 -62.86160 8850 ft 218 kts 264°
2026-05-05 01:10 45.06585 -62.88281 8590 ft 215 kts 264°
2026-05-05 01:10 45.06414 -62.90357 8339 ft 211 kts 264°
2026-05-05 01:10 45.06245 -62.92392 8098 ft 207 kts 264°
2026-05-05 01:11 45.06079 -62.94405 7844 ft 205 kts 264°
2026-05-05 01:11 45.05911 -62.96434 7616 ft 211 kts 264°
2026-05-05 01:11 45.05740 -62.98484 7390 ft 215 kts 264°
2026-05-05 01:11 45.05564 -63.00598 7122 ft 217 kts 264°
2026-05-05 01:12 45.05386 -63.02722 6860 ft 218 kts 264°
2026-05-05 01:12 45.05207 -63.04855 6595 ft 218 kts 264°
2026-05-05 01:12 45.05031 -63.06959 6345 ft 216 kts 264°
2026-05-05 01:12 45.04856 -63.09048 6085 ft 213 kts 264°
2026-05-05 01:13 45.04684 -63.11088 5823 ft 210 kts 264°
2026-05-05 01:13 45.04512 -63.13119 5582 ft 207 kts 264°
2026-05-05 01:13 45.04343 -63.15123 5346 ft 203 kts 264°
2026-05-05 01:13 45.04176 -63.17088 5111 ft 200 kts 264°
2026-05-05 01:14 45.04009 -63.19052 4907 ft 201 kts 264°
2026-05-05 01:14 45.03847 -63.20955 4841 ft 188 kts 264°
2026-05-05 01:14 45.03695 -63.22744 4727 ft 181 kts 264°
2026-05-05 01:14 45.03545 -63.24499 4616 ft 180 kts 264°
2026-05-05 01:15 45.03394 -63.26252 4475 ft 180 kts 264°
2026-05-05 01:15 45.03243 -63.28012 4403 ft 180 kts 264°
2026-05-05 01:15 45.03092 -63.29762 4301 ft 179 kts 264°
2026-05-05 01:15 45.02944 -63.31487 4180 ft 180 kts 264°
2026-05-05 01:16 45.02792 -63.33247 3984 ft 180 kts 264°
2026-05-05 01:16 45.02640 -63.35004 3801 ft 180 kts 264°
2026-05-05 01:16 45.02209 -63.36654 3587 ft 184 kts 242°
2026-05-05 01:16 45.01353 -63.37972 3402 ft 180 kts 230°
2026-05-05 01:17 45.00371 -63.39035 3169 ft 174 kts 226°
2026-05-05 01:17 44.99408 -63.39997 2978 ft 166 kts 225°
2026-05-05 01:17 44.98485 -63.40914 2785 ft 159 kts 226°
2026-05-05 01:17 44.97603 -63.41791 2578 ft 149 kts 226°
2026-05-05 01:18 44.96771 -63.42616 2396 ft 139 kts 227°
2026-05-05 01:18 44.96018 -63.43362 2238 ft 129 kts 226°
2026-05-05 01:18 44.95301 -63.44082 2070 ft 129 kts 226°
2026-05-05 01:18 44.94570 -63.44823 1929 ft 128 kts 226°
2026-05-05 01:19 44.93842 -63.45554 1738 ft 128 kts 224°
2026-05-05 01:19 44.93108 -63.46251 1478 ft 128 kts 222°
2026-05-05 01:19 44.92374 -63.46979 1218 ft 130 kts 220°
2026-05-05 01:19 44.91621 -63.47729 1094 ft 135 kts 217°
2026-05-05 01:20 44.90849 -63.48500 1005 ft 137 kts 216°
2026-05-05 01:20 44.90084 -63.49258 791 ft 137 kts 216°
2026-05-05 01:20 44.89286 -63.50043 619 ft 140 kts 213°
2026-05-05 01:20 44.88510 -63.50809 461 ft 135 kts 214°
2026-05-05 01:21 44.87857 -63.51451 453 ft 86 kts 214°
2026-05-05 01:21 44.87507 -63.51806 451 ft 43 kts 227°
2026-05-05 01:21 44.87447 -63.52004 453 ft 17 kts 269°
2026-05-05 01:21 44.87502 -63.52110 454 ft 14 kts 356°
2026-05-05 01:22 44.87626 -63.52006 454 ft 32 kts 33°
2026-05-05 01:22 44.87843 -63.51796 454 ft 43 kts 34°
2026-05-05 01:22 44.88006 -63.51629 454 ft 29 kts 36°
2026-05-05 01:22 44.88168 -63.51471 454 ft 29 kts 35°
2026-05-05 01:23 44.88291 -63.51354 454 ft 21 kts 38°
2026-05-05 01:23 44.88436 -63.51205 454 ft 26 kts 16°
2026-05-05 01:23 44.88540 -63.51229 454 ft 16 kts 327°
2026-05-05 01:23 44.88551 -63.51314 454 ft 10 kts 269°
2026-05-05 01:24 44.88549 -63.51357 454 ft 1 kts 269°
2026-05-05 01:24 44.88549 -63.51358 454 ft 0 kts 269°